Weather History for KPOF - February, 2012

Change the Weather History Date:

Monday, February 27, 2012

  Actual Average Record
Temperature  
Mean Temperature 50 °F -  
Max Temperature 62 °F 52 °F 77 °F (1955)
Min Temperature 37 °F 31 °F 2 °F (1934)
Degree Days  
Heating Degree Days 16    
Moisture  
Dew Point 33 °F    
Average Humidity 56    
Maximum Humidity 86    
Minimum Humidity 32    
Precipitation  
Precipitation 0.00 in - - ()
Sea Level Pressure  
Sea Level Pressure 30.34 in    
Wind  
Wind Speed 4 mph (NE)    
Max Wind Speed 13 mph    
Max Gust Speed 20 mph    
Visibility 10 miles    
Events      
Averages and records for this station are not official NWS values.
T = Trace of Precipitation, MM = Missing Value Source: NWS Daily Summary

Daily Weather History Graph

Daily Weather History Graph

Search for Another Location

Airport or City:

Trip Planner

Search our weather history database for the weather conditions in past years. The results will help you decide how hot, cold, wet, or windy it might be!

Date:

Astronomy

Feb. 27, 2012 Rise Set
Actual Time 6:35 AM CST 5:53 PM CST
Civil Twilight 6:09 AM CST 6:19 PM CST
Nautical Twilight 5:39 AM CST 6:49 PM CST
Astronomical Twilight 5:09 AM CST 7:19 PM CST
Moon 9:14 AM CST (2/27) 11:36 PM CST (2/27)
Length of Visible Light 12h 10m
Length of Day
11h 17m
Waxing Crescent, 29% of the Moon is Illuminated
Feb 27
Waxing Crescent
Feb 29
First Quarter
Mar 8
Full
Mar 14
Last Quarter
Mar 22
New

Hourly Weather History & Observations

Time (CST) Temp. Windchill Dew Point Humidity Pressure Visibility Wind Dir Wind Speed Gust Speed Precip Events Conditions
12:53 AM 39.0 °F - 34.0 °F 82% 30.24 in 10.0 mi Calm Calm - N/A   Clear
1:53 AM 39.9 °F - 34.0 °F 79% 30.25 in 10.0 mi Calm Calm - N/A   Mostly Cloudy
2:53 AM 44.1 °F 42.5 °F 34.0 °F 68% 30.25 in 10.0 mi SSW 3.5 mph - N/A   Overcast
3:53 AM 41.0 °F 39.0 °F 35.1 °F 79% 30.25 in 10.0 mi SSW 3.5 mph - N/A   Overcast
4:53 AM 39.0 °F - 34.0 °F 82% 30.27 in 10.0 mi Calm Calm - N/A   Mostly Cloudy
5:53 AM 37.9 °F - 34.0 °F 86% 30.29 in 10.0 mi Calm Calm - N/A   Partly Cloudy
6:53 AM 37.9 °F - 33.1 °F 83% 30.32 in 10.0 mi Calm Calm - N/A   Clear
7:53 AM 43.0 °F - 37.0 °F 80% 30.35 in 10.0 mi Calm Calm - N/A   Clear
8:53 AM 52.0 °F - 36.0 °F 54% 30.37 in 10.0 mi Calm Calm - N/A   Clear
9:53 AM 57.0 °F - 35.1 °F 44% 30.38 in 10.0 mi NNE 9.2 mph - N/A   Clear
10:53 AM 60.1 °F - 35.1 °F 39% 30.38 in 10.0 mi NE 12.7 mph - N/A   Clear
11:53 AM 60.1 °F - 37.0 °F 42% 30.38 in 10.0 mi ENE 10.4 mph - N/A   Clear
12:53 PM 62.1 °F - 34.0 °F 35% 30.36 in 10.0 mi NE 10.4 mph - N/A   Clear
1:53 PM 62.1 °F - 34.0 °F 35% 30.35 in 10.0 mi ENE 10.4 mph - N/A   Clear
2:53 PM 61.0 °F - 32.0 °F 34% 30.35 in 10.0 mi ENE 10.4 mph - N/A   Clear
3:53 PM 61.0 °F - 30.9 °F 32% 30.35 in 10.0 mi ENE 11.5 mph 19.6 mph N/A   Clear
4:53 PM 59.0 °F - 30.9 °F 35% 30.36 in 10.0 mi ENE 12.7 mph - N/A   Clear
5:53 PM 55.0 °F - 32.0 °F 42% 30.38 in 10.0 mi ENE 8.1 mph - N/A   Clear
6:53 PM 51.1 °F - 32.0 °F 48% 30.39 in 10.0 mi NE 5.8 mph - N/A   Clear
7:53 PM 48.9 °F - 32.0 °F 52% 30.39 in 10.0 mi NE 6.9 mph - N/A   Clear
8:53 PM 48.0 °F - 30.0 °F 50% 30.39 in 10.0 mi NE 5.8 mph - N/A   Clear
9:53 PM 46.9 °F - 30.0 °F 52% 30.39 in 10.0 mi NE 5.8 mph - N/A   Clear
10:53 PM 45.0 °F 40.6 °F 30.0 °F 56% 30.38 in 10.0 mi NE 8.1 mph - N/A   Clear
11:53 PM 43.0 °F 38.8 °F 30.0 °F 60% 30.37 in 10.0 mi NE 6.9 mph - N/A   Clear